Regional Weather Roundup
Issued by NWS

Home | Current Version | Previous Version | Graphics & Text | Print | Product List | Glossary Off
Versions: 1 2 3 4 5 6 7 8 9 10 11 12 13 14 15 16 17 18 19 20 21 22 23 24 25 26 27 28 29 30 31 32 33 34 35 36 37 38 39 40 41 42 43 44 45 46 47 48 49 50

000
ASUS43 KTOP 231259
RWRKS

WEATHER ROUNDUP FOR KANSAS
NATIONAL WEATHER SERVICE GOODLAND KS
700 AM CST MON JAN 23 2017

NOTE:  "FAIR" INDICATES FEW OR NO CLOUDS BELOW 12,000 FEET WITH NO
SIGNIFICANT WEATHER AND/OR OBSTRUCTIONS TO VISIBILITY.

KSZ001>006-013>018-027>032-041>047-231400-
NORTHWEST KANSAS

CITY           SKY/WX    TMP DP  RH WIND       PRES   REMARKS
GOODLAND       CLOUDY    27  23  85 SE10      29.73F WCI  17
HAYS           PTCLDY    27  25  92 CALM      29.84F
HILL CITY      CLOUDY    25  23  92 CALM      29.82F
RUSSELL        PTCLDY    27  25  92 SW6       29.82F
$$

KSZ061>065-074>080-084>089-231400-
SOUTHWEST KANSAS

CITY           SKY/WX    TMP DP  RH WIND       PRES   REMARKS
DODGE CITY     CLOUDY    30  26  85 S9        29.80F
ELKHART          N/A     32  19  58 S7          N/A
GARDEN CITY    CLEAR     30  26  85 S3        29.77F
GREAT BEND     CLOUDY    25  24  96 SE5       29.83F
LIBERAL          N/A     30  25  80 S8        29.79F
$$

KSZ066>073-081>083-090>101-231400-
SOUTHEAST KANSAS

CITY           SKY/WX    TMP DP  RH WIND       PRES   REMARKS
CHANUTE        CLEAR     27  25  92 W3        29.91R
COFFEYVILLE    CLEAR     30  28  92 CALM      29.93S
HUTCHINSON     CLEAR     25  23  92 CALM      29.88F
MEDICINE LODGE   N/A     24  22  91 CALM      29.87F
NEWTON         CLEAR     27  26  96 S8        29.89F
PARSONS        CLEAR     26  24  92 CALM      29.93R
WICHITA INTL   CLEAR     30  27  88 E3        29.89F
WICHITA JABRA  CLEAR     27  26  96 S5        29.89F
WINFIELD       CLOUDY    29  27  92 E3        29.92F
$$

KSZ007>012-019>026-033>040-048>060-102>105-231400-
NORTHEAST KANSAS

CITY           SKY/WX    TMP DP  RH WIND       PRES   REMARKS
CONCORDIA      PTCLDY    26  24  92 CALM      29.86F
EMPORIA        CLEAR     26  26 100 CALM      29.89F FOG
LAWRENCE       PTCLDY    22  22 100 CALM      29.91S FOG
MANHATTAN      PTCLDY    23  20  88 CALM      29.89F
OLATHE IND     CLEAR     27  26  96 NW7       29.90R FOG
OLATHE EXE     MOCLDY    29  29 100 NW6       29.89R FOG
SALINA         CLEAR     25  25 100 S5        29.89
TOPEKA BILLARD PTCLDY    28  25  88 W3        29.91S
TOPEKA FORBES  CLEAR     25  23  92 CALM      29.90S FOG
$$




USA.gov is the U.S. government's official web portal to all federal, state and local government web resources and services.